Weather History for Aurora, OR

Change the Weather History Date:

Friday, April 19, 2013

  Actual Average Record
Temperature  
Mean Temperature 52 °F -  
Max Temperature 58 °F - 79 °F (2009)
Min Temperature 48 °F - 33 °F (2011)
Degree Days  
Heating Degree Days 12    
Month to date heating degree days 279  
Since 1 July heating degree days 3933  
Cooling Degree Days 0    
Month to date cooling degree days 0  
Year to date cooling degree days 0  
Growing Degree Days 2 (Base 50)    
Moisture  
Dew Point 48 °F    
Average Humidity 86    
Maximum Humidity 100    
Minimum Humidity 72    
Precipitation  
Precipitation 0.27 in - 0.99 in (1997)
Month to date precipitation 1.90  
Year to date precipitation 7.91  
Sea Level Pressure  
Sea Level Pressure 30.25 in    
Wind  
Wind Speed 10 mph (SSW)    
Max Wind Speed 20 mph    
Max Gust Speed 28 mph    
Visibility 10 miles    
Events Rain    
T = Trace of Precipitation, MM = Missing Value Source: NWS Daily Summary

Daily Weather History Graph

Daily Weather History Graph

Search for Another Location

Airport:

Trip Planner

Search our weather history database for the weather conditions in past years. The results will help you decide how hot, cold, wet, or windy it might be!

Date:

Astronomy

Apr. 19, 2013 Rise Set
Actual Time 6:18 AM PDT 8:02 PM PDT
Civil Twilight 5:47 AM PDT 8:33 PM PDT
Nautical Twilight 5:09 AM PDT 9:12 PM PDT
Astronomical Twilight 4:28 AM PDT 9:53 PM PDT
Moon 1:35 PM PDT (4/19) 2:54 AM PDT (4/19)
Length of Visible Light 14h 46m
Length of Day
13h 44m
Waxing Gibbous, 62% of the Moon is Illuminated
Apr 19
Waxing Gibbous
Apr 25
Full
May 2
Last Quarter
May 9
New
May 17
First Quarter

Hourly Weather History & Observations

Time (PDT) Temp. Dew Point Humidity Pressure Visibility Wind Dir Wind Speed Gust Speed Precip Events Conditions
12:53 AM 50.0 °F 48.0 °F 93% 30.33 in 9.0 mi South 5.8 mph - 0.03 in Rain Light Rain
1:20 AM 50.0 °F 48.2 °F 94% 30.33 in 10.0 mi SSW 5.8 mph - 0.01 in Rain Light Rain
1:30 AM 50.0 °F 48.2 °F 94% 30.32 in 10.0 mi South 5.8 mph - 0.01 in Rain Light Rain
1:53 AM 50.0 °F 48.0 °F 93% 30.31 in 10.0 mi SSW 6.9 mph - 0.02 in Rain Light Rain
2:30 AM 50.0 °F 48.2 °F 94% 30.30 in 9.0 mi South 6.9 mph - 0.02 in Rain Light Rain
2:53 AM 50.0 °F 48.0 °F 93% 30.29 in 7.0 mi SSW 4.6 mph - 0.05 in Rain Light Rain
3:08 AM 50.0 °F 48.2 °F 94% 30.29 in 9.0 mi SSW 4.6 mph - 0.02 in Rain Light Rain
3:23 AM 50.0 °F 48.2 °F 94% 30.28 in 9.0 mi SW 6.9 mph - 0.03 in Rain Light Rain
3:53 AM 48.9 °F 48.0 °F 97% 30.26 in 10.0 mi South 8.1 mph - 0.05 in Rain Light Rain
4:06 AM 50.0 °F 48.2 °F 94% 30.26 in 10.0 mi South 8.1 mph - 0.00 in Rain Light Rain
4:13 AM 50.0 °F 48.2 °F 94% 30.25 in 10.0 mi SSW 8.1 mph - 0.00 in   Overcast
4:53 AM 50.0 °F 48.0 °F 93% 30.24 in 10.0 mi South 12.7 mph - 0.01 in Rain Light Rain
5:15 AM 48.2 °F 46.4 °F 93% 30.23 in 10.0 mi SSW 9.2 mph 16.1 mph 0.00 in Rain Light Rain
5:53 AM 48.9 °F 46.9 °F 93% 30.21 in 10.0 mi SSW 11.5 mph - 0.00 in   Overcast
6:45 AM 48.2 °F 46.4 °F 93% 30.21 in 7.0 mi South 12.7 mph - 0.04 in Rain Rain
6:53 AM 48.9 °F 48.0 °F 97% 30.21 in 8.0 mi South 10.4 mph 21.9 mph 0.05 in Rain Rain
7:53 AM 48.9 °F 48.0 °F 97% 30.21 in 10.0 mi SSW 12.7 mph 19.6 mph 0.05 in Rain Light Rain
8:53 AM 50.0 °F 48.0 °F 93% 30.20 in 10.0 mi South 12.7 mph 21.9 mph 0.02 in   Overcast
9:19 AM 50.0 °F 48.2 °F 94% 30.19 in 10.0 mi South 12.7 mph 23.0 mph N/A   Overcast
9:53 AM 51.1 °F 48.9 °F 92% 30.19 in 8.0 mi SSW 12.7 mph 19.6 mph 0.01 in Rain Light Rain
10:42 AM 51.8 °F 48.2 °F 88% 30.19 in 10.0 mi SSW 10.4 mph 18.4 mph 0.00 in   Overcast
10:53 AM 51.1 °F 48.9 °F 92% 30.20 in 9.0 mi South 13.8 mph 19.6 mph 0.00 in   Overcast
11:40 AM 51.8 °F 50.0 °F 94% 30.21 in 10.0 mi SSW 9.2 mph 19.6 mph 0.01 in   Overcast
11:53 AM 52.0 °F 50.0 °F 93% 30.21 in 10.0 mi SSW 12.7 mph 18.4 mph 0.01 in   Overcast
11:58 AM 53.6 °F 51.8 °F 94% 30.20 in 10.0 mi South 11.5 mph - N/A   Overcast
12:10 PM 55.4 °F 51.8 °F 88% 30.20 in 10.0 mi SSW 11.5 mph - N/A   Overcast
12:53 PM 57.0 °F 48.9 °F 74% 30.21 in 10.0 mi SW 13.8 mph 24.2 mph N/A   Overcast
1:53 PM 55.9 °F 48.0 °F 75% 30.22 in 10.0 mi WSW 13.8 mph 20.7 mph N/A   Overcast
2:53 PM 57.0 °F 50.0 °F 77% 30.23 in 10.0 mi SW 11.5 mph 19.6 mph 0.00 in   Overcast
3:53 PM 55.9 °F 48.0 °F 75% 30.25 in 10.0 mi SW 10.4 mph 20.7 mph N/A   Overcast
4:53 PM 55.9 °F 48.0 °F 75% 30.26 in 10.0 mi SW 12.7 mph - N/A   Mostly Cloudy
5:10 PM 55.4 °F 46.4 °F 72% 30.25 in 10.0 mi WSW 12.7 mph - N/A   Overcast
5:53 PM 57.0 °F 48.0 °F 72% 30.26 in 10.0 mi SW 11.5 mph 19.6 mph N/A   Overcast
6:53 PM 55.0 °F 46.9 °F 74% 30.26 in 10.0 mi WSW 9.2 mph - N/A   Overcast
7:53 PM 53.1 °F 46.0 °F 77% 30.27 in 10.0 mi WSW 9.2 mph - N/A   Overcast
8:53 PM 52.0 °F 46.0 °F 80% 30.28 in 10.0 mi SW 8.1 mph - N/A   Overcast
9:53 PM 50.0 °F 46.0 °F 86% 30.30 in 10.0 mi SW 5.8 mph - N/A   Overcast
10:53 PM 48.9 °F 45.0 °F 86% 30.31 in 10.0 mi SW 3.5 mph - N/A   Overcast
11:53 PM 48.9 °F 45.0 °F 86% 30.32 in 10.0 mi Calm Calm - N/A   Overcast